DW6561 Weather Reports


time (UTC)temp
F
wind
direction
speed
knots
gust
knots
rain 1hr
in
rain 24hr
in
rain mn
in
humidity
%
barometer
mb
20260905143024 55 161 0.0 0.0 0.00 0.00 0.00 75 1017.9
20260905141522 55 161 0.0 0.0 0.00 0.00 0.00 73 1017.9
20260905140008 55 161 0.0 0.0 0.00 0.00 0.00 71 1017.8
20260905134512 55 161 0.0 0.0 0.00 0.00 0.00 71 1017.8
20260905133022 55 161 0.0 0.0 0.00 0.00 0.00 69 1017.4
20260905131531 55 161 0.0 0.0 0.00 0.00 0.00 69 1017.4
20260905130027 55 161 0.0 0.0 0.00 0.00 0.00 70 1017.3
20260905124519 55 161 0.0 0.0 0.00 0.00 0.00 70 1017.2
20260905123018 55 161 0.0 0.0 0.00 0.00 0.00 71 1017.3
20260905121518 56 161 0.0 0.0 0.00 0.00 0.00 73 1017.0
20260905120032 56 161 0.0 0.0 0.00 0.00 0.00 73 1017.0
20260905114531 56 161 0.0 0.0 0.00 0.00 0.00 69 1016.7
20260905113019 57 161 0.0 0.0 0.00 0.00 0.00 69 1016.5
20260905111523 57 161 0.0 0.0 0.00 0.00 0.00 69 1016.5
20260905110028 57 161 0.0 0.0 0.00 0.00 0.00 68 1016.4
20260905104525 57 161 0.0 0.0 0.00 0.00 0.00 67 1016.4
20260905103036 57 161 0.0 0.0 0.00 0.00 0.00 66 1016.5
20260905101502 57 161 0.0 0.0 0.00 0.00 0.00 65 1016.4
20260905100003 58 161 0.0 0.0 0.00 0.00 0.00 64 1016.5
20260905094506 58 161 0.0 0.0 0.00 0.00 0.00 62 1016.5
20260905093003 58 161 0.0 0.0 0.00 0.00 0.00 62 1016.5
20260905091504 58 173 0.0 0.0 0.00 0.00 0.00 63 1016.5
20260905090004 58 329 0.0 0.0 0.00 0.00 0.00 63 1016.3
20260905084506 58 329 0.0 0.0 0.00 0.00 0.00 63 1016.1
20260905083012 59 329 0.0 0.0 0.00 0.00 0.00 62 1016.1
20260905081509 59 329 0.0 0.0 0.00 0.00 0.00 61 1016.0
20260905080003 59 329 0.0 0.0 0.00 0.00 0.00 61 1015.8
20260905074504 59 329 0.0 0.0 0.00 0.00 0.00 61 1015.7
20260905073010 59 329 0.0 0.9 0.00 0.00 0.00 61 1015.6
20260905071515 59 344 0.0 0.9 0.00 0.00 0.00 61 1015.6
20260905070015 59 291 0.0 0.0 0.00 0.00 0.00 62 1015.5
20260905064504 58 239 0.0 0.0 0.00 0.00 0.00 63 1015.4
20260905063004 58 239 0.0 0.0 0.00 0.00 0.00 63 1015.3
20260905061507 59 229 0.0 0.9 0.00 0.00 0.00 63 1015.2
20260905060004 59 49 0.0 0.0 0.00 0.00 0.00 62 1015.1
20260905054524 59 49 0.0 0.0 0.00 0.00 0.00 61 1015.1
20260905053004 60 49 0.0 0.9 0.00 0.00 0.00 59 1015.0
20260905051508 60 17 0.0 0.0 0.00 0.00 0.00 58 1014.8
20260905050013 61 17 0.0 0.0 0.00 0.00 0.00 55 1015.0
20260905044515 62 17 0.0 0.0 0.00 0.00 0.00 49 1014.9
20260905043006 62 17 0.0 0.0 0.00 0.00 0.00 43 1014.7
20260905041528 63 17 0.0 0.0 0.00 0.00 0.00 44 1014.9
20260905040017 63 17 0.0 0.0 0.00 0.00 0.00 43 1014.9
20260905034526 64 17 0.0 0.0 0.00 0.00 0.00 42 1014.9
20260905033019 64 17 0.0 0.0 0.00 0.00 0.00 43 1014.7
20260905031515 65 17 0.0 0.0 0.00 0.00 0.00 43 1014.6
20260905030010 65 17 0.0 0.0 0.00 0.00 0.00 43 1014.4
20260905024517 66 17 0.0 0.0 0.00 0.00 0.00 41 1014.4
20260905023020 67 17 0.0 0.0 0.00 0.00 0.00 41 1014.4
20260905021533 68 17 0.0 0.0 0.00 0.00 0.00 38 1014.4
20260905020026 69 17 0.0 0.0 0.00 0.00 0.00 37 1014.3
20260905014521 69 17 0.0 0.0 0.00 0.00 0.00 38 1014.3
20260905013015 70 17 0.0 0.0 0.00 0.00 0.00 36 1014.2
20260905011501 70 19 0.0 1.7 0.00 0.00 0.00 36 1014.1
20260905010006 71 142 0.0 0.0 0.00 0.00 0.00 36 1014.0
20260905004509 71 333 0.0 0.0 0.00 0.00 0.00 35 1014.0
20260905003004 72 333 0.0 0.0 0.00 0.00 0.00 34 1013.9
20260905001503 72 117 0.0 0.0 0.00 0.00 0.00 33 1013.8
20260905000011 72 117 0.0 2.6 0.00 0.00 0.00 34 1013.9
20260904234502 72 129 0.0 0.0 0.00 0.00 0.00 36 1014.0
20260904233016 72 111 0.0 1.7 0.00 0.00 0.00 39 1013.9
20260904231503 72 117 0.0 1.7 0.00 0.00 0.00 37 1013.9
20260904230004 73 103 0.0 0.0 0.00 0.00 0.00 37 1013.9
20260904224505 74 98 0.9 2.6 0.00 0.00 0.00 38 1013.9
20260904223011 74 327 0.0 3.5 0.00 0.00 0.00 39 1014.0
20260904221506 74 109 0.0 0.9 0.00 0.00 0.00 41 1014.1
20260904220008 73 74 0.0 2.6 0.00 0.00 0.00 41 1014.2
20260904214512 73 103 0.0 0.0 0.00 0.00 0.00 45 1014.2
20260904213011 72 131 0.0 0.0 0.00 0.00 0.00 43 1014.1
20260904211510 72 86 0.0 1.7 0.00 0.00 0.00 43 1014.1
20260904210004 72 125 0.0 2.6 0.00 0.00 0.00 42 1014.1
20260904204505 72 123 0.0 1.7 0.00 0.00 0.00 43 1014.0
20260904203009 71 92 0.0 2.6 0.00 0.00 0.00 44 1014.1
20260904201511 71 288 0.0 0.9 0.00 0.00 0.00 45 1014.1
20260904200014 71 296 0.0 1.7 0.00 0.00 0.00 45 1014.1
20260904194512 71 196 0.0 1.7 0.00 0.00 0.00 47 1014.2
20260904193003 71 344 0.0 0.9 0.00 0.00 0.00 45 1014.3
20260904191504 71 300 0.0 0.9 0.00 0.00 0.00 44 1014.5
20260904190019 71 89 0.0 1.7 0.00 0.00 0.00 46 1014.6
20260904184529 70 103 0.0 0.0 0.00 0.00 0.00 48 1014.7
20260904183018 69 183 0.0 0.0 0.00 0.00 0.00 47 1014.8
20260904181509 69 145 0.0 0.0 0.00 0.00 0.00 47 1014.7
20260904180011 68 258 0.0 0.0 0.00 0.00 0.00 49 1014.5
20260904174511 67 316 0.0 0.0 0.00 0.00 0.00 51 1014.4
20260904173037 66 308 0.0 0.0 0.00 0.00 0.00 51 1014.3
20260904171530 65 73 0.0 0.0 0.00 0.00 0.00 55 1014.3
20260904170016 63 88 0.0 0.0 0.00 0.00 0.00 58 1014.2
20260904164520 62 103 0.0 0.0 0.00 0.00 0.00 61 1014.2
20260904163018 61 336 0.0 0.0 0.00 0.00 0.00 62 1014.2
20260904161505 60 337 0.0 0.0 0.00 0.00 0.00 63 1014.2
20260904160012 59 74 0.0 0.0 0.00 0.00 0.00 66 1014.1
20260904154509 58 296 0.0 0.0 0.00 0.00 0.00 68 1014.0
20260904153003 57 327 0.0 0.0 0.00 0.00 0.00 68 1013.9
20260904151503 56 202 0.0 0.0 0.00 0.00 0.00 70 1013.7
20260904150014 56 202 0.0 0.9 0.00 0.00 0.00 71 1013.6
20260904144514 54 179 0.0 4.3 0.00 0.00 0.00 73 1013.4